COSMOS 2251 DEB

Satellite information

Favourite Embed

Satellite Type and Status

DEBRISIN ORBIT

Key statistics

Satellite COSMOS 2251 DEB at a glance.

Uptime

11813

Days in orbit

Revolutions

≈ 14.4

Per day

Orbit

LEO

Low Earth Orbit

Inclination

74.0

Latest

Satellite identification and parameters

Extended collection of information and parameters for COSMOS 2251 DEB.

Object identification

Identified? True

Debris? True

Object name: COSMOS 2251 DEB

International designator: 1993-036AP

Object number (NORAD): 33798

Object ID (CCSDS): 33798

Country: COMMONWEALTH OF INDEPENDENT STATES (CIS)

Current information (Y/N): Y

RCS size: SMALL

Orbital parameters

Period: 99.688 minutes

Inclination: 74.0289 deg

SMA: 7121.766 km

Apoapsis: 808.647 km

Periapsis: 678.615 km

RAAN: 238.0032 deg

Eccentricy: 0.00912919

Argument of periapsis: 11.7331 deg

Mean anomaly: 44.0783 deg

Mean motion: 14.4451208 rev/day

Mean motion (dot): 0.00001282 rev/day2

B* drag term: 0.00036042973 1/REarth

Two-line elements (TLE)

Creation date: Oct. 19, 2025, 2:20 a.m.

Reference frame: TEME

Reference center: EARTH

Epoch: Oct. 18, 2025, 10:02 p.m. UTC

TLE line 0: 0 COSMOS 2251 DEB

TLE line 1: 1 33798U 93036AP 25291.91867454 .00001282 00000-0 36043-3 0 9996

TLE line 2: 2 33798 74.0289 238.0032 0091292 11.7331 44.0783 14.44512080878029

Live tracking on map

Real-time ground track for satellite COSMOS 2251 DEB.

In-orbit conjunctions

A list of the most updated potential collisions computed for object COSMOS 2251 DEB.

Target Orbit TCA Probability of collision Miss distance Type
CZ-6A DEB LEO 2025-10-02 11:22:13 0.000119831 591.0 (m) DEBRIS

Associated space launch

Military communications satellite. Destroyed in a collision with Iridium 33.

COSMOS 2251 DEB was lifted into orbit during the mission ‘Kosmos-3M | Strela-2M 51’, on board a Kosmos-3M space rocket.

The launch took place on June 16, 1993, 4:17 a.m. from 132/1 (132L).

For more information about the launch, click the button.

Launch to space Kosmos-3M | Strela-2M 51
Kosmos-3M | Strela-2M 51

Agency: N/A

Status: Launch Successful

Launch date: June 16, 1993, 4:17 a.m. UTC

Rocket: Kosmos-3M

Launch pad: 132/1 (132L)

Location: Plesetsk Cosmodrome, Russian Federation

...

Latest news about this satellite

There are no fresh news available about this satellite. Check back as we update our databases every day.


Newsletter sign-up

Weekly statistics, charts and insights to help you stay on top of the space industry.